カタログに戻る

STARLINK-34441

運用中通信VLEO
NORAD 64430·PAYLOAD·🇺🇸 United States

打ち上げ Jun 17, 2025 から Vandenberg Space Force Base

Loading…

次のパス (今後24時間)

TLE

最新Source: CelesTrak SupGP

元期: Sep 14, 2026, 22:48 UTC

1 64430C 25129U   26257.95048611  .00046253  00000+0  16099-2 0  2575
2 64430  69.9988 315.7893 0003458 268.3304  94.3536 15.29537084    15

AllMySatでSTARLINK-34441をリアルタイム追跡

Download on the App Store